| time (UTC) | temp F | wind direction | speed knots | gust knots | rain 1hr in | rain 24hr in | rain mn in | humidity % | barometer mb |
| 20260506124514 | 65 | 142 | 1.7 | 4.3 | 0.00 | 0.00 | 0.00 | 80 | 1006.4 |
| 20260506123013 | 64 | 153 | 1.7 | 5.2 | 0.00 | 0.00 | 0.00 | 80 | 1006.5 |
| 20260506121512 | 64 | 143 | 2.6 | 6.1 | 0.00 | 0.00 | 0.00 | 81 | 1006.7 |
| 20260506120013 | 64 | 157 | 1.7 | 3.5 | 0.00 | 0.00 | 0.00 | 81 | 1006.9 |
| 20260506114508 | 63 | 123 | 1.7 | 5.2 | 0.00 | 0.00 | 0.00 | 81 | 1006.6 |
| 20260506113004 | 0 | 0.0 | 0.0 | 0.00 | 0.00 | 0.00 | 1006.7 | ||
| 20260506111602 | 0 | 0.0 | 0.0 | 0.00 | 0.00 | 0.00 | 1006.5 | ||
| 20260506110103 | 0 | 0.0 | 0.0 | 0.00 | 0.00 | 0.00 | 1006.6 | ||
| 20260506104521 | 0 | 0.0 | 0.0 | 0.00 | 0.00 | 0.00 | 1006.6 | ||
| 20260506103018 | 0 | 0.0 | 0.0 | 0.00 | 0.00 | 0.00 | 1006.3 | ||
| 20260506101510 | 0 | 0.0 | 0.0 | 0.00 | 0.00 | 0.00 | 1006.4 | ||
| 20260506100008 | 0 | 0.0 | 0.0 | 0.00 | 0.00 | 0.00 | 1006.2 | ||
| 20260506094504 | 0 | 0.0 | 0.0 | 0.00 | 0.00 | 0.00 | 1006.4 | ||
| 20260506093101 | 0 | 0.0 | 0.0 | 0.00 | 0.00 | 0.00 | 1006.2 | ||
| 20260506091552 | 0 | 0.0 | 0.0 | 0.00 | 0.00 | 0.00 | 1006.2 | ||
| 20260506090100 | 0 | 0.0 | 0.0 | 0.00 | 0.00 | 0.00 | 1006.3 | ||
| 20260506084550 | 0 | 0.0 | 0.0 | 0.00 | 0.00 | 0.00 | 1006.2 | ||
| 20260506083138 | 0 | 0.0 | 0.0 | 0.00 | 0.00 | 0.00 | 1006.4 | ||
| 20260506081504 | 0 | 0.0 | 0.0 | 0.00 | 0.00 | 0.00 | 1006.4 | ||
| 20260506073050 | 0 | 0.0 | 0.0 | 0.00 | 0.00 | 0.00 | 1006.4 | ||
| 20260506071547 | 0 | 0.0 | 0.0 | 0.00 | 0.00 | 0.00 | 1006.4 | ||
| 20260506061534 | 64 | 173 | 0.0 | 0.0 | 0.00 | 0.00 | 0.00 | 68 | 1006.9 |
| 20260506050104 | 67 | 172 | 0.0 | 2.6 | 0.00 | 0.00 | 0.00 | 63 | 1007.1 |
| 20260506044546 | 67 | 172 | 0.9 | 2.6 | 0.00 | 0.00 | 0.00 | 62 | 1007.2 |
| 20260506043042 | 67 | 175 | 0.9 | 4.3 | 0.00 | 0.00 | 0.00 | 61 | 1007.2 |
| 20260506041556 | 67 | 168 | 1.7 | 3.5 | 0.00 | 0.00 | 0.00 | 62 | 1007.2 |
| 20260506040039 | 68 | 161 | 0.0 | 2.6 | 0.00 | 0.00 | 0.00 | 60 | 1007.2 |
| 20260506034547 | 69 | 158 | 0.9 | 3.5 | 0.00 | 0.00 | 0.00 | 58 | 1007.0 |
| 20260506033031 | 70 | 158 | 3.5 | 6.1 | 0.00 | 0.00 | 0.00 | 54 | 1007.0 |
| 20260506031532 | 73 | 130 | 1.7 | 4.3 | 0.00 | 0.00 | 0.00 | 49 | 1006.9 |
| 20260506030029 | 74 | 175 | 1.7 | 7.0 | 0.00 | 0.00 | 0.00 | 47 | 1006.9 |
| 20260506024530 | 74 | 143 | 1.7 | 5.2 | 0.00 | 0.00 | 0.00 | 46 | 1006.7 |
| 20260506023027 | 74 | 149 | 3.5 | 6.1 | 0.00 | 0.00 | 0.00 | 45 | 1006.6 |
| 20260506020025 | 75 | 168 | 0.9 | 4.3 | 0.00 | 0.00 | 0.00 | 42 | 1006.5 |
| 20260506014524 | 75 | 171 | 0.9 | 6.1 | 0.00 | 0.00 | 0.00 | 41 | 1006.4 |
| 20260506013036 | 75 | 156 | 1.7 | 5.2 | 0.00 | 0.00 | 0.00 | 41 | 1006.3 |
| 20260506011526 | 75 | 178 | 0.9 | 4.3 | 0.00 | 0.00 | 0.00 | 41 | 1006.1 |
| 20260506010025 | 75 | 177 | 1.7 | 7.0 | 0.00 | 0.00 | 0.00 | 41 | 1006.0 |
| 20260506004521 | 75 | 149 | 0.9 | 3.5 | 0.00 | 0.00 | 0.00 | 40 | 1005.8 |
| 20260506003021 | 76 | 167 | 1.7 | 7.0 | 0.00 | 0.00 | 0.00 | 41 | 1005.6 |
| 20260506001520 | 76 | 173 | 0.0 | 4.3 | 0.00 | 0.00 | 0.00 | 40 | 1005.5 |
| 20260506000057 | 76 | 157 | 0.9 | 5.2 | 0.00 | 0.00 | 0.00 | 40 | 1005.4 |
| 20260505234549 | 76 | 175 | 0.9 | 3.5 | 0.00 | 0.00 | 0.00 | 40 | 1005.2 |
| 20260505233052 | 77 | 144 | 0.0 | 5.2 | 0.00 | 0.00 | 0.00 | 39 | 1005.0 |
| 20260505231548 | 77 | 132 | 0.9 | 5.2 | 0.00 | 0.00 | 0.00 | 38 | 1004.8 |
| 20260505230111 | 78 | 173 | 0.0 | 5.2 | 0.00 | 0.00 | 0.00 | 38 | 1004.7 |
| 20260505224545 | 78 | 168 | 0.0 | 6.1 | 0.00 | 0.00 | 0.00 | 37 | 1004.3 |
| 20260505223044 | 79 | 174 | 3.5 | 7.0 | 0.00 | 0.00 | 0.00 | 36 | 1004.2 |
| 20260505221545 | 79 | 158 | 1.7 | 10.4 | 0.00 | 0.00 | 0.00 | 37 | 1004.0 |
| 20260505220051 | 80 | 164 | 3.5 | 9.6 | 0.00 | 0.00 | 0.00 | 36 | 1003.9 |
| 20260505214540 | 80 | 150 | 2.6 | 9.6 | 0.00 | 0.00 | 0.00 | 36 | 1003.8 |
| 20260505213038 | 81 | 142 | 3.5 | 7.8 | 0.00 | 0.00 | 0.00 | 37 | 1003.8 |
| 20260505211542 | 81 | 11 | 3.5 | 9.6 | 0.00 | 0.00 | 0.00 | 35 | 1003.8 |
| 20260505210036 | 82 | 163 | 3.5 | 9.6 | 0.00 | 0.00 | 0.00 | 36 | 1003.6 |
| 20260505204532 | 83 | 154 | 5.2 | 12.2 | 0.00 | 0.00 | 0.00 | 34 | 1003.5 |
| 20260505203031 | 83 | 198 | 0.9 | 7.8 | 0.00 | 0.00 | 0.00 | 36 | 1003.6 |
| 20260505201529 | 82 | 215 | 5.2 | 10.4 | 0.00 | 0.00 | 0.00 | 35 | 1003.7 |
| 20260505200034 | 83 | 178 | 1.7 | 13.9 | 0.00 | 0.00 | 0.00 | 38 | 1004.1 |
| 20260505194523 | 84 | 75 | 0.9 | 5.2 | 0.00 | 0.00 | 0.00 | 36 | 1004.1 |
| 20260505193021 | 84 | 207 | 0.9 | 7.8 | 0.00 | 0.00 | 0.00 | 34 | 1004.3 |
| 20260505191526 | 84 | 220 | 1.7 | 7.8 | 0.00 | 0.00 | 0.00 | 36 | 1004.4 |
| 20260505190146 | 84 | 71 | 3.5 | 8.7 | 0.00 | 0.00 | 0.00 | 34 | 1004.6 |
| 20260505184546 | 83 | 102 | 4.3 | 7.8 | 0.00 | 0.00 | 0.00 | 35 | 1004.7 |
| 20260505183042 | 83 | 188 | 0.9 | 7.8 | 0.00 | 0.00 | 0.00 | 37 | 1005.0 |
| 20260505181543 | 83 | 132 | 3.5 | 9.6 | 0.00 | 0.00 | 0.00 | 36 | 1005.2 |
| 20260505180033 | 83 | 270 | 1.7 | 7.8 | 0.00 | 0.00 | 0.00 | 39 | 1005.2 |
| 20260505174530 | 82 | 77 | 2.6 | 9.6 | 0.00 | 0.00 | 0.00 | 41 | 1005.5 |
| 20260505173026 | 82 | 162 | 3.5 | 9.6 | 0.00 | 0.00 | 0.00 | 42 | 1005.6 |
| 20260505171523 | 81 | 159 | 3.5 | 13.0 | 0.00 | 0.00 | 0.00 | 42 | 1005.7 |
| 20260505170027 | 81 | 168 | 3.5 | 11.3 | 0.00 | 0.00 | 0.00 | 44 | 1005.8 |
| 20260505164518 | 80 | 140 | 5.2 | 10.4 | 0.00 | 0.00 | 0.00 | 42 | 1006.0 |
| 20260505163016 | 80 | 133 | 1.7 | 12.2 | 0.00 | 0.00 | 0.00 | 44 | 1006.3 |
| 20260505161528 | 80 | 174 | 2.6 | 9.6 | 0.00 | 0.00 | 0.00 | 46 | 1006.7 |
| 20260505153101 | 78 | 173 | 2.6 | 8.7 | 0.00 | 0.00 | 0.00 | 53 | 1007.2 |
| 20260505151556 | 77 | 147 | 3.5 | 7.8 | 0.00 | 0.00 | 0.00 | 51 | 1007.3 |
| 20260505150104 | 77 | 177 | 1.7 | 8.7 | 0.00 | 0.00 | 0.00 | 51 | 1007.4 |
| 20260505130110 | 66 | 161 | 2.6 | 6.1 | 0.00 | 0.00 | 0.00 | 64 | 1008.0 |